SR2WXM Weather Reports


time (UTC)temp
F
wind
direction
speed
knots
gust
knots
rain 1hr
in
rain 24hr
in
rain mn
in
humidity
%
barometer
mb
20260507001503 48 326 2.6 4.3 0.00 0.00 0.00 96 1005.7
20260507000002 48 293 3.5 4.3 0.00 0.00 0.00 97 1005.7
20260506234502 48 256 0.9 1.7 0.00 0.00 0.00 97 1005.7
20260506233002 48 304 1.7 2.6 0.00 0.00 0.00 96 1005.7
20260506231502 48 335 2.6 5.2 0.00 0.00 0.00 96 1006.1
20260506230002 48 257 2.6 2.6 0.00 0.00 0.00 97 1005.7
20260506224502 48 238 2.6 4.3 0.00 0.00 0.00 96 1006.1
20260506223001 50 303 0.9 2.6 0.00 0.00 0.00 97 1006.1
20260506221503 50 276 0.9 1.7 0.00 0.00 0.00 97 1006.1
20260506220003 50 252 1.7 2.6 0.00 0.00 0.00 97 1005.7
20260506214503 50 247 0.0 0.9 0.00 0.00 0.00 96 1005.7
20260506213001 50 316 1.7 2.6 0.00 0.00 0.00 96 1005.0
20260506211502 51 285 2.6 2.6 0.00 0.00 0.00 96 1005.0
20260506210002 51 326 5.2 6.1 0.00 0.00 0.00 96 1005.0
20260506204501 51 276 3.5 3.5 0.00 0.00 0.00 96 1005.0
20260506203002 51 266 0.9 2.6 0.00 0.00 0.00 95 1005.0
20260506201502 51 313 1.7 2.6 0.00 0.00 0.00 95 1005.0
20260506200003 53 280 3.5 3.5 0.00 0.00 0.00 94 1005.0
20260506194502 53 244 1.7 2.6 0.00 0.00 0.00 92 1005.0
20260506193003 53 253 3.5 4.3 0.00 0.00 0.00 91 1005.0
20260506191503 53 256 4.3 5.2 0.00 0.00 0.00 89 1004.7
20260506190003 55 251 3.5 3.5 0.00 0.00 0.00 88 1004.7
20260506184502 55 333 1.7 4.3 0.00 0.00 0.00 87 1004.7
20260506183004 55 271 2.6 4.3 0.00 0.00 0.00 85 1003.7
20260506181503 57 284 2.6 2.6 0.00 0.00 0.00 83 1003.7
20260506180005 59 270 1.7 2.6 0.00 0.00 0.00 81 1003.7
20260506174502 60 265 4.3 7.0 0.00 0.00 0.00 77 1003.7
20260506173005 62 245 5.2 7.0 0.00 0.00 0.00 73 1003.7
20260506171502 64 265 7.0 7.0 0.00 0.00 0.00 72 1003.3
20260506170003 66 294 7.0 8.7 0.00 0.00 0.00 69 1003.0
20260506164502 66 229 7.0 7.8 0.00 0.00 0.00 66 1003.0
20260506163003 68 253 7.8 11.3 0.00 0.00 0.00 63 1003.0
20260506161503 68 240 2.6 4.3 0.00 0.00 0.00 64 1003.0
20260506160004 68 270 5.2 7.0 0.00 0.00 0.00 64 1003.0
20260506154502 69 241 2.6 3.5 0.00 0.00 0.00 63 1003.0
20260506153002 68 257 5.2 6.1 0.00 0.00 0.00 62 1003.0
20260506151502 66 258 4.3 7.0 0.00 0.00 0.00 64 1003.0
20260506150003 66 295 2.6 3.5 0.00 0.00 0.00 65 1003.0
20260506144501 68 248 6.1 8.7 0.00 0.00 0.00 62 1003.0
20260506143002 66 219 5.2 7.0 0.00 0.00 0.00 64 1003.0
20260506141503 68 255 5.2 6.1 0.00 0.00 0.00 62 1003.0
20260506140002 66 207 7.8 8.7 0.00 0.00 0.00 62 1003.0
20260506134501 66 249 7.0 7.0 0.00 0.00 0.00 63 1003.0
20260506133002 68 228 2.6 3.5 0.00 0.00 0.00 65 1003.0
20260506131503 66 239 7.0 8.7 0.00 0.00 0.00 64 1003.0
20260506130002 66 189 7.0 7.8 0.00 0.00 0.00 65 1003.0
20260506124502 66 228 3.5 3.5 0.00 0.00 0.00 66 1003.0
20260506123002 64 202 4.3 7.0 0.00 0.00 0.00 65 1003.0
20260506121501 66 229 3.5 5.2 0.00 0.00 0.00 65 1003.0
20260506120001 64 233 4.3 6.1 0.00 0.00 0.00 67 1003.0
20260506114502 64 218 5.2 7.0 0.00 0.00 0.00 65 1003.0
20260506113003 66 247 5.2 7.0 0.00 0.00 0.00 63 1003.0
20260506111503 62 216 7.0 7.8 0.00 0.00 0.00 68 1003.3
20260506110001 64 228 5.2 6.1 0.00 0.00 0.00 67 1003.0
20260506104502 64 208 9.6 10.4 0.00 0.00 0.00 66 1003.0
20260506103002 66 233 3.5 6.1 0.00 0.00 0.00 65 1003.0
20260506101503 66 249 7.0 11.3 0.00 0.00 0.00 64 1003.0
20260506100004 64 232 4.3 5.2 0.00 0.00 0.00 67 1003.0
20260506094503 66 232 7.0 7.8 0.00 0.00 0.00 62 1003.0
20260506093002 62 255 6.1 7.8 0.00 0.00 0.00 68 1003.0
20260506091503 64 235 3.5 3.5 0.00 0.00 0.00 66 1002.7
20260506090004 64 198 4.3 5.2 0.00 0.00 0.00 66 1002.7
20260506084503 62 225 5.2 11.3 0.00 0.00 0.00 68 1003.0
20260506083003 60 193 2.6 2.6 0.00 0.00 0.00 75 1002.3
20260506081503 59 180 1.7 2.6 0.00 0.00 0.00 75 1002.0
20260506073002 57 161 1.7 1.7 0.00 0.00 0.00 74 1002.3
20260506071502 59 235 0.0 1.7 0.00 0.00 0.00 72 1002.3
20260506061503 55 231 2.6 3.5 0.00 0.00 0.00 81 1002.3
20260506044501 50 349 4.3 6.1 0.00 0.00 0.00 97 1003.0
20260506043004 50 16 4.3 7.8 0.00 0.00 0.00 98 1003.0
20260506041503 50 86 5.2 7.0 0.00 0.00 0.00 98 1003.0
20260506040005 50 28 5.2 7.0 0.00 0.00 0.00 99 1003.0
20260506034503 50 8 4.3 4.3 0.00 0.00 0.00 99 1003.3
20260506033004 48 17 2.6 3.5 0.00 0.00 0.00 99 1003.3
20260506031502 48 28 4.3 4.3 0.00 0.00 0.00 99 1003.3
20260506030002 48 41 4.3 5.2 0.00 0.00 0.00 99 1003.3
20260506024502 48 353 2.6 3.5 0.00 0.00 0.00 99 1003.7
20260506023003 48 55 5.2 7.0 0.00 0.00 0.00 99 1004.0
20260506021503 48 26 5.2 6.1 0.00 0.00 0.00 99 1004.0
20260506020003 50 32 5.2 7.0 0.00 0.00 0.00 99 1004.0
20260506014501 50 9 4.3 5.2 0.00 0.00 0.00 99 1004.0
20260506013002 50 321 5.2 7.8 0.00 0.00 0.00 99 1004.0
20260506011502 50 85 4.3 4.3 0.00 0.00 0.00 99 1004.7
20260506010002 50 352 5.2 7.0 0.00 0.00 0.00 99 1005.0
20260506004503 50 15 3.5 5.2 0.00 0.00 0.00 99 1005.0
20260506003004 50 29 5.2 6.1 0.00 0.00 0.00 99 1005.0